Time,TemperatureF,DewpointF,PressureIn,WindDirection,WindDirectionDegrees,WindSpeedMPH,WindSpeedGustMPH,Humidity,HourlyPrecipIn,Conditions,Clouds,dailyrainin,SoftwareType,DateUTC
2013-01-28 00:00:00,44.4,37.3,30.15,WNW,295,0.0,6.0,76,0.00,RA,,0.00,WeatherDisplay:10.37,2013-01-28 08:00:00,
2013-01-28 00:10:00,44.4,37.0,30.16,WNW,302,0.0,0.0,75,0.00,CLR,,0.00,WeatherDisplay:10.37,2013-01-28 08:10:00,
2013-01-28 00:15:00,44.4,37.0,30.16,WNW,302,0.0,0.0,75,0.00,CLR,,0.00,WeatherDisplay:10.37,2013-01-28 08:15:00,
2013-01-28 00:20:00,44.3,36.9,30.16,WNW,302,0.0,0.0,75,0.00,CLR,,0.00,WeatherDisplay:10.37,2013-01-28 08:20:00,
2013-01-28 00:25:00,44.2,36.8,30.16,WNW,302,0.0,0.0,75,0.00,CLR,,0.00,WeatherDisplay:10.37,2013-01-28 08:25:00,
2013-01-28 00:30:00,44.1,36.7,30.16,WNW,302,0.0,0.0,75,0.00,CLR,,0.00,WeatherDisplay:10.37,2013-01-28 08:30:00,
2013-01-28 00:40:00,43.9,36.5,30.16,WNW,302,0.0,0.0,75,0.00,CLR,,0.00,WeatherDisplay:10.37,2013-01-28 08:40:00,
2013-01-28 00:45:00,43.8,36.0,30.16,WNW,302,0.0,0.0,74,0.00,CLR,,0.00,WeatherDisplay:10.37,2013-01-28 08:45:00,
2013-01-28 00:50:00,43.6,36.2,30.16,WNW,302,0.0,0.0,75,0.00,CLR,,0.00,WeatherDisplay:10.37,2013-01-28 08:50:00,
2013-01-28 01:00:00,43.2,35.8,30.17,WNW,302,0.0,0.0,75,0.00,CLR,,0.00,WeatherDisplay:10.37,2013-01-28 09:00:00,
2013-01-28 01:05:00,43.1,35.7,30.17,WNW,302,0.0,0.0,75,0.00,CLR,,0.00,WeatherDisplay:10.37,2013-01-28 09:05:00,
2013-01-28 01:10:00,42.9,35.5,30.17,WNW,302,0.0,0.0,75,0.00,CLR,,0.00,WeatherDisplay:10.37,2013-01-28 09:10:00,
2013-01-28 01:20:00,42.5,35.1,30.17,WNW,302,0.0,0.0,75,0.00,CLR,,0.00,WeatherDisplay:10.37,2013-01-28 09:20:00,
2013-01-28 01:25:00,42.3,35.3,30.17,WNW,302,0.0,0.0,76,0.00,CLR,,0.00,WeatherDisplay:10.37,2013-01-28 09:25:00,
2013-01-28 01:30:00,42.1,35.1,30.17,WNW,302,0.0,0.0,76,0.00,CLR,,0.00,WeatherDisplay:10.37,2013-01-28 09:30:00,
2013-01-28 01:40:00,41.8,34.8,30.17,WNW,302,0.0,0.0,76,0.00,CLR,,0.00,WeatherDisplay:10.37,2013-01-28 09:40:00,
2013-01-28 01:45:00,41.6,34.6,30.17,WNW,302,0.0,0.0,76,0.00,CLR,,0.00,WeatherDisplay:10.37,2013-01-28 09:45:00,
2013-01-28 01:50:00,41.5,34.8,30.17,WNW,302,0.0,0.0,77,0.00,CLR,,0.00,WeatherDisplay:10.37,2013-01-28 09:50:00,
2013-01-28 01:55:00,41.3,34.3,30.17,WNW,302,0.0,0.0,76,0.00,CLR,,0.00,WeatherDisplay:10.37,2013-01-28 09:55:00,
2013-01-28 02:05:00,41.0,34.4,30.17,WNW,302,0.0,0.0,77,0.00,CLR,,0.00,WeatherDisplay:10.37,2013-01-28 10:05:00,
2013-01-28 02:10:00,40.9,34.2,30.18,WNW,302,0.0,0.0,77,0.00,CLR,,0.00,WeatherDisplay:10.37,2013-01-28 10:10:00,
2013-01-28 02:15:00,40.8,34.5,30.18,WNW,302,0.0,0.0,78,0.00,CLR,,0.00,WeatherDisplay:10.37,2013-01-28 10:15:00,
2013-01-28 02:20:00,40.7,34.4,30.18,WNW,302,0.0,0.0,78,0.00,CLR,,0.00,WeatherDisplay:10.37,2013-01-28 10:20:00,
2013-01-28 02:25:00,40.6,34.3,30.18,WNW,302,0.0,0.0,78,0.00,CLR,,0.00,WeatherDisplay:10.37,2013-01-28 10:25:00,
2013-01-28 02:30:00,40.5,34.2,30.18,WNW,302,0.0,0.0,78,0.00,CLR,,0.00,WeatherDisplay:10.37,2013-01-28 10:30:00,
2013-01-28 02:40:00,40.3,34.0,30.18,WNW,302,0.0,0.0,78,0.00,CLR,,0.00,WeatherDisplay:10.37,2013-01-28 10:40:00,
2013-01-28 02:50:00,40.1,34.1,30.17,WNW,302,0.0,0.0,79,0.00,CLR,,0.00,WeatherDisplay:10.37,2013-01-28 10:50:00,
2013-01-28 02:55:00,40.0,34.0,30.17,WNW,302,0.0,0.0,79,0.00,CLR,,0.00,WeatherDisplay:10.37,2013-01-28 10:55:00,
2013-01-28 03:00:00,39.9,33.9,30.18,WNW,302,0.0,1.0,79,0.00,CLR,,0.00,WeatherDisplay:10.37,2013-01-28 11:00:00,
2013-01-28 03:10:00,39.8,34.1,30.17,WNW,302,0.0,0.0,80,0.00,CLR,,0.00,WeatherDisplay:10.37,2013-01-28 11:10:00,
2013-01-28 03:15:00,39.7,34.4,30.17,WNW,302,0.0,2.0,81,0.00,CLR,,0.00,WeatherDisplay:10.37,2013-01-28 11:15:00,
2013-01-28 03:20:00,39.7,34.3,30.17,WNW,302,0.0,1.0,81,0.00,CLR,,0.00,WeatherDisplay:10.37,2013-01-28 11:20:00,
2013-01-28 03:25:00,39.6,34.3,30.17,WNW,302,0.0,1.0,81,0.00,CLR,,0.00,WeatherDisplay:10.37,2013-01-28 11:25:00,
2013-01-28 03:30:00,39.6,34.2,30.17,WNW,302,0.0,0.0,81,0.00,CLR,,0.00,WeatherDisplay:10.37,2013-01-28 11:30:00,
2013-01-28 03:40:00,39.5,34.2,30.17,WNW,302,0.0,0.0,81,0.00,CLR,,0.00,WeatherDisplay:10.37,2013-01-28 11:40:00,
2013-01-28 03:45:00,39.5,34.2,30.17,WNW,302,0.0,0.0,81,0.00,CLR,,0.00,WeatherDisplay:10.37,2013-01-28 11:45:00,
2013-01-28 03:50:00,39.5,34.2,30.17,WNW,302,0.0,0.0,81,0.00,CLR,,0.00,WeatherDisplay:10.37,2013-01-28 11:50:00,
2013-01-28 04:00:00,39.5,33.8,30.17,WNW,302,0.0,0.0,80,0.00,CLR,,0.00,WeatherDisplay:10.37,2013-01-28 12:00:00,
2013-01-28 04:05:00,39.4,33.7,30.17,WNW,302,0.0,0.0,80,0.00,CLR,,0.00,WeatherDisplay:10.37,2013-01-28 12:05:00,
2013-01-28 04:15:00,39.3,33.3,30.18,WNW,302,0.0,0.0,79,0.00,CLR,,0.00,WeatherDisplay:10.37,2013-01-28 12:15:00,
2013-01-28 04:20:00,39.3,33.3,30.18,WNW,302,0.0,0.0,79,0.00,CLR,,0.00,WeatherDisplay:10.37,2013-01-28 12:20:00,
2013-01-28 04:30:00,39.1,33.5,30.18,WNW,302,0.0,0.0,80,0.00,CLR,,0.00,WeatherDisplay:10.37,2013-01-28 12:30:00,
2013-01-28 04:35:00,39.0,33.4,30.18,WNW,302,0.0,0.0,80,0.00,CLR,,0.00,WeatherDisplay:10.37,2013-01-28 12:35:00,
2013-01-28 04:45:00,38.9,32.9,30.18,WNW,302,0.0,0.0,79,0.00,CLR,,0.00,WeatherDisplay:10.37,2013-01-28 12:45:00,
2013-01-28 04:50:00,38.9,32.9,30.18,WNW,302,0.0,0.0,79,0.00,CLR,,0.00,WeatherDisplay:10.37,2013-01-28 12:50:00,
2013-01-28 04:55:00,38.8,32.8,30.18,WNW,302,0.0,0.0,79,0.00,CLR,,0.00,WeatherDisplay:10.37,2013-01-28 12:55:00,
2013-01-28 05:00:00,38.6,32.7,30.18,WNW,302,0.0,0.0,79,0.00,CLR,,0.00,WeatherDisplay:10.37,2013-01-28 13:00:00,
2013-01-28 05:05:00,38.5,32.9,30.17,WNW,302,0.0,0.0,80,0.00,CLR,,0.00,WeatherDisplay:10.37,2013-01-28 13:05:00,
2013-01-28 05:10:00,38.4,32.5,30.17,WNW,302,0.0,0.0,79,0.00,CLR,,0.00,WeatherDisplay:10.37,2013-01-28 13:10:00,
2013-01-28 05:20:00,38.2,32.6,30.18,WNW,302,0.0,0.0,80,0.00,CLR,,0.00,WeatherDisplay:10.37,2013-01-28 13:20:00,
2013-01-28 05:35:00,37.9,32.2,30.18,WNW,302,0.0,0.0,80,0.00,CLR,,0.00,WeatherDisplay:10.37,2013-01-28 13:35:00,
2013-01-28 05:40:00,37.8,32.5,30.18,WNW,302,0.0,2.0,81,0.00,CLR,,0.00,WeatherDisplay:10.37,2013-01-28 13:40:00,
2013-01-28 05:45:00,37.7,32.4,30.18,WNW,302,0.0,0.0,81,0.00,CLR,,0.00,WeatherDisplay:10.37,2013-01-28 13:45:00,
2013-01-28 05:50:00,37.6,32.3,30.18,WNW,302,0.0,0.0,81,0.00,CLR,,0.00,WeatherDisplay:10.37,2013-01-28 13:50:00,
2013-01-28 06:00:00,37.5,32.2,30.18,WNW,302,0.0,1.0,81,0.00,CLR,,0.00,WeatherDisplay:10.37,2013-01-28 14:00:00,
2013-01-28 06:10:00,37.5,32.2,30.19,WNW,302,0.0,0.0,81,0.00,SCT,,0.00,WeatherDisplay:10.37,2013-01-28 14:10:00,
2013-01-28 06:20:00,37.4,32.4,30.19,WNW,302,0.0,0.0,82,0.00,SCT,,0.00,WeatherDisplay:10.37,2013-01-28 14:20:00,
2013-01-28 06:25:00,37.4,32.4,30.19,WNW,302,0.0,0.0,82,0.00,SCT,,0.00,WeatherDisplay:10.37,2013-01-28 14:25:00,
2013-01-28 06:30:00,37.5,32.8,30.19,WNW,302,0.0,0.0,83,0.00,SCT,,0.00,WeatherDisplay:10.37,2013-01-28 14:30:00,
2013-01-28 06:40:00,37.5,32.8,30.19,WNW,302,0.0,1.0,83,0.00,SCT,,0.00,WeatherDisplay:10.37,2013-01-28 14:40:00,
2013-01-28 06:50:00,37.6,33.2,30.19,NW,315,0.0,3.0,84,0.00,SCT,,0.00,WeatherDisplay:10.37,2013-01-28 14:50:00,
2013-01-28 07:00:00,37.8,33.4,30.19,NNW,347,0.0,2.0,84,0.00,SCT,,0.00,WeatherDisplay:10.37,2013-01-28 15:00:00,
2013-01-28 07:05:00,37.9,33.5,30.19,North,352,0.0,0.0,84,0.00,SCT,,0.00,WeatherDisplay:10.37,2013-01-28 15:05:00,
2013-01-28 07:10:00,38.0,33.9,30.19,North,353,0.0,0.0,85,0.00,SCT,,0.00,WeatherDisplay:10.37,2013-01-28 15:10:00,
2013-01-28 07:15:00,38.2,34.1,30.19,North,4,0.0,3.0,85,0.00,SCT,,0.00,WeatherDisplay:10.37,2013-01-28 15:15:00,
2013-01-28 07:20:00,38.3,34.2,30.19,NNE,25,0.0,0.0,85,0.00,SCT,,0.00,WeatherDisplay:10.37,2013-01-28 15:20:00,
2013-01-28 07:25:00,38.5,34.4,30.19,NNE,25,0.0,0.0,85,0.00,SCT,,0.00,WeatherDisplay:10.37,2013-01-28 15:25:00,
2013-01-28 07:30:00,38.6,34.5,30.19,NNE,25,0.0,0.0,85,0.00,SCT,,0.00,WeatherDisplay:10.37,2013-01-28 15:30:00,
2013-01-28 07:35:00,38.8,34.7,30.19,NNE,25,0.0,0.0,85,0.00,SCT,,0.00,WeatherDisplay:10.37,2013-01-28 15:35:00,
2013-01-28 07:40:00,38.9,34.8,30.19,NNE,25,0.0,0.0,85,0.00,SCT,,0.00,WeatherDisplay:10.37,2013-01-28 15:40:00,
2013-01-28 07:50:00,39.2,35.1,30.19,NNE,25,0.0,0.0,85,0.00,SCT,,0.00,WeatherDisplay:10.37,2013-01-28 15:50:00,
2013-01-28 07:55:00,39.4,35.3,30.19,NNE,25,0.0,0.0,85,0.00,SCT,,0.00,WeatherDisplay:10.37,2013-01-28 15:55:00,
2013-01-28 08:00:00,39.5,35.4,30.19,NNE,24,0.0,0.0,85,0.00,SCT,,0.00,WeatherDisplay:10.37,2013-01-28 16:00:00,
2013-01-28 08:05:00,39.7,35.6,30.19,NNE,23,0.0,0.0,85,0.00,FEW,,0.00,WeatherDisplay:10.37,2013-01-28 16:05:00,
2013-01-28 08:10:00,39.9,35.8,30.19,NNE,23,0.0,0.0,85,0.00,FEW,,0.00,WeatherDisplay:10.37,2013-01-28 16:10:00,
2013-01-28 08:15:00,40.1,36.0,30.20,NNE,23,0.0,0.0,85,0.00,FEW,,0.00,WeatherDisplay:10.37,2013-01-28 16:15:00,
2013-01-28 08:25:00,40.6,36.1,30.20,North,8,0.0,0.0,84,0.00,FEW,,0.00,WeatherDisplay:10.37,2013-01-28 16:25:00,
2013-01-28 08:30:00,40.9,36.4,30.20,North,7,0.0,0.0,84,0.00,FEW,,0.00,WeatherDisplay:10.37,2013-01-28 16:30:00,
2013-01-28 08:35:00,41.1,36.9,30.20,North,3,0.0,0.0,85,0.00,FEW,,0.00,WeatherDisplay:10.37,2013-01-28 16:35:00,
2013-01-28 08:40:00,41.4,37.2,30.21,North,0,0.0,2.0,85,0.00,FEW,,0.00,WeatherDisplay:10.37,2013-01-28 16:40:00,
2013-01-28 08:50:00,41.8,37.3,30.20,North,0,0.0,0.0,84,0.00,FEW,,0.00,WeatherDisplay:10.37,2013-01-28 16:50:00,
2013-01-28 09:00:00,42.3,37.9,30.20,North,0,0.0,0.0,84,0.00,FEW,,0.00,WeatherDisplay:10.37,2013-01-28 17:00:00,
2013-01-28 09:05:00,42.6,38.1,30.20,North,0,0.0,0.0,84,0.00,CLR,,0.00,WeatherDisplay:10.37,2013-01-28 17:05:00,
2013-01-28 09:10:00,42.9,38.4,30.20,North,349,0.0,0.0,84,0.00,CLR,,0.00,WeatherDisplay:10.37,2013-01-28 17:10:00,
2013-01-28 09:20:00,43.6,39.1,30.21,NW,312,0.0,0.0,84,0.00,CLR,,0.00,WeatherDisplay:10.37,2013-01-28 17:20:00,
2013-01-28 09:30:00,44.3,39.8,30.21,NW,312,0.0,0.0,84,0.00,CLR,,0.00,WeatherDisplay:10.37,2013-01-28 17:30:00,
2013-01-28 09:40:00,45.2,40.6,30.21,NW,315,0.0,3.0,84,0.00,CLR,,0.00,WeatherDisplay:10.37,2013-01-28 17:40:00,
2013-01-28 09:45:00,45.6,40.7,30.21,NNW,335,0.0,3.0,83,0.00,CLR,,0.00,WeatherDisplay:10.37,2013-01-28 17:45:00,
2013-01-28 09:50:00,46.0,40.8,30.21,North,359,1.0,5.0,82,0.00,CLR,,0.00,WeatherDisplay:10.37,2013-01-28 17:50:00,
2013-01-28 09:55:00,46.4,40.9,30.20,North,356,0.0,4.0,81,0.00,CLR,,0.00,WeatherDisplay:10.37,2013-01-28 17:55:00,
2013-01-28 10:00:00,46.8,41.0,30.21,NW,319,0.0,5.0,80,0.00,CLR,,0.00,WeatherDisplay:10.37,2013-01-28 18:00:00,
2013-01-28 10:05:00,47.2,41.0,30.21,NW,321,1.0,5.0,79,0.00,FEW,,0.00,WeatherDisplay:10.37,2013-01-28 18:05:00,
2013-01-28 10:10:00,47.5,41.0,30.21,NW,320,0.0,4.0,78,0.00,FEW,,0.00,WeatherDisplay:10.37,2013-01-28 18:10:00,
2013-01-28 10:15:00,47.9,41.4,30.21,NW,311,2.0,8.0,78,0.00,FEW,,0.00,WeatherDisplay:10.37,2013-01-28 18:15:00,
2013-01-28 10:20:00,48.3,41.4,30.21,NW,313,1.0,7.0,77,0.00,FEW,,0.00,WeatherDisplay:10.37,2013-01-28 18:20:00,
2013-01-28 10:25:00,48.6,41.3,30.21,NW,322,2.0,4.0,76,0.00,FEW,,0.00,WeatherDisplay:10.37,2013-01-28 18:25:00,
2013-01-28 10:30:00,48.8,41.2,30.21,WNW,286,1.0,8.0,75,0.00,FEW,,0.00,WeatherDisplay:10.37,2013-01-28 18:30:00,
2013-01-28 10:35:00,49.0,40.7,30.22,WNW,291,1.0,6.0,73,0.00,FEW,,0.00,WeatherDisplay:10.37,2013-01-28 18:35:00,
2013-01-28 10:40:00,49.2,41.3,30.22,WNW,300,0.0,3.0,74,0.00,FEW,,0.00,WeatherDisplay:10.37,2013-01-28 18:40:00,
2013-01-28 10:45:00,49.4,40.7,30.22,NNW,335,2.0,9.0,72,0.00,FEW,,0.00,WeatherDisplay:10.37,2013-01-28 18:45:00,
2013-01-28 10:50:00,49.6,40.9,30.22,NNW,347,1.0,7.0,72,0.00,FEW,,0.00,WeatherDisplay:10.37,2013-01-28 18:50:00,
2013-01-28 11:00:00,50.0,41.0,30.22,NNW,345,0.0,6.0,71,0.00,FEW,,0.00,WeatherDisplay:10.37,2013-01-28 19:00:00,
2013-01-28 11:05:00,50.2,41.2,30.22,NNW,342,1.0,6.0,71,0.00,CLR,,0.00,WeatherDisplay:10.37,2013-01-28 19:05:00,
2013-01-28 11:10:00,50.4,41.0,30.23,NNW,332,0.0,4.0,70,0.00,CLR,,0.00,WeatherDisplay:10.37,2013-01-28 19:10:00,
2013-01-28 11:15:00,50.6,41.5,30.23,North,350,1.0,4.0,71,0.00,CLR,,0.00,WeatherDisplay:10.37,2013-01-28 19:15:00,
2013-01-28 11:20:00,50.8,41.0,30.23,NNW,331,1.0,6.0,69,0.00,CLR,,0.00,WeatherDisplay:10.37,2013-01-28 19:20:00,
2013-01-28 11:25:00,51.0,41.2,30.23,NW,308,0.0,7.0,69,0.00,CLR,,0.00,WeatherDisplay:10.37,2013-01-28 19:25:00,
2013-01-28 11:30:00,51.1,40.9,30.23,NW,304,1.0,8.0,68,0.00,CLR,,0.00,WeatherDisplay:10.37,2013-01-28 19:30:00,
2013-01-28 11:40:00,51.5,41.3,30.23,WNW,297,1.0,5.0,68,0.00,CLR,,0.00,WeatherDisplay:10.37,2013-01-28 19:40:00,
2013-01-28 11:45:00,51.7,41.1,30.22,NW,305,2.0,9.0,67,0.00,CLR,,0.00,WeatherDisplay:10.37,2013-01-28 19:45:00,
2013-01-28 11:50:00,51.9,41.3,30.22,NW,313,1.0,8.0,67,0.00,CLR,,0.00,WeatherDisplay:10.37,2013-01-28 19:50:00,
2013-01-28 12:00:00,52.2,41.2,30.22,NW,308,1.0,4.0,66,0.00,CLR,,0.00,WeatherDisplay:10.37,2013-01-28 20:00:00,
2013-01-28 12:05:00,52.4,41.0,30.22,NW,319,2.0,6.0,65,0.00,CLR,,0.00,WeatherDisplay:10.37,2013-01-28 20:05:00,
2013-01-28 12:10:00,52.5,41.1,30.22,NNE,14,1.0,4.0,65,0.00,CLR,,0.00,WeatherDisplay:10.37,2013-01-28 20:10:00,
2013-01-28 12:15:00,52.7,40.8,30.22,NE,38,0.0,5.0,64,0.00,CLR,,0.00,WeatherDisplay:10.37,2013-01-28 20:15:00,
2013-01-28 12:20:00,52.8,41.0,30.21,NW,324,0.0,7.0,64,0.00,CLR,,0.00,WeatherDisplay:10.37,2013-01-28 20:20:00,
2013-01-28 12:25:00,53.0,41.1,30.21,West,280,1.0,5.0,64,0.00,CLR,,0.00,WeatherDisplay:10.37,2013-01-28 20:25:00,
2013-01-28 12:30:00,53.2,40.9,30.21,NW,317,1.0,6.0,63,0.00,CLR,,0.00,WeatherDisplay:10.37,2013-01-28 20:30:00,
2013-01-28 12:35:00,53.4,40.2,30.21,NW,304,1.0,8.0,61,0.00,CLR,,0.00,WeatherDisplay:10.37,2013-01-28 20:35:00,
2013-01-28 12:40:00,53.6,40.8,30.21,WNW,297,5.0,10.0,62,0.00,CLR,,0.00,WeatherDisplay:10.37,2013-01-28 20:40:00,
2013-01-28 12:50:00,54.0,40.4,30.21,WNW,302,5.0,7.0,60,0.00,CLR,,0.00,WeatherDisplay:10.37,2013-01-28 20:50:00,
2013-01-28 13:00:00,54.3,40.3,30.20,NW,309,2.0,7.0,59,0.00,CLR,,0.00,WeatherDisplay:10.37,2013-01-28 21:00:00,
2013-01-28 13:05:00,54.4,40.3,30.20,NNE,23,3.0,6.0,59,0.00,CLR,,0.00,WeatherDisplay:10.37,2013-01-28 21:05:00,
2013-01-28 13:10:00,54.5,40.9,30.20,NE,35,1.0,9.0,60,0.00,CLR,,0.00,WeatherDisplay:10.37,2013-01-28 21:10:00,
2013-01-28 13:15:00,54.7,40.6,30.20,North,9,1.0,9.0,59,0.00,CLR,,0.00,WeatherDisplay:10.37,2013-01-28 21:15:00,
2013-01-28 13:25:00,55.0,40.9,30.19,NW,323,1.0,5.0,59,0.00,CLR,,0.00,WeatherDisplay:10.37,2013-01-28 21:25:00,
2013-01-28 13:30:00,55.2,40.7,30.19,NNW,348,1.0,6.0,58,0.00,CLR,,0.00,WeatherDisplay:10.37,2013-01-28 21:30:00,
2013-01-28 13:35:00,55.3,40.8,30.19,North,6,0.0,5.0,58,0.00,CLR,,0.00,WeatherDisplay:10.37,2013-01-28 21:35:00,
2013-01-28 13:40:00,55.5,40.9,30.19,North,4,1.0,5.0,58,0.00,CLR,,0.00,WeatherDisplay:10.37,2013-01-28 21:40:00,
2013-01-28 13:50:00,55.7,40.3,30.20,North,3,1.0,6.0,56,0.00,CLR,,0.00,WeatherDisplay:10.37,2013-01-28 21:50:00,
2013-01-28 13:55:00,55.8,39.9,30.20,North,5,1.0,7.0,55,0.00,CLR,,0.00,WeatherDisplay:10.37,2013-01-28 21:55:00,
2013-01-28 14:00:00,55.9,39.9,30.19,North,2,1.0,4.0,55,0.00,CLR,,0.00,WeatherDisplay:10.37,2013-01-28 22:00:00,
2013-01-28 14:05:00,55.9,39.0,30.19,NNE,24,5.0,13.0,53,0.00,CLR,,0.00,WeatherDisplay:10.37,2013-01-28 22:05:00,
2013-01-28 14:10:00,56.0,39.1,30.19,NNE,23,1.0,6.0,53,0.00,CLR,,0.00,WeatherDisplay:10.37,2013-01-28 22:10:00,
2013-01-28 14:20:00,56.1,39.2,30.19,North,9,1.0,7.0,53,0.00,CLR,,0.00,WeatherDisplay:10.37,2013-01-28 22:20:00,
2013-01-28 14:30:00,56.2,39.3,30.19,North,352,1.0,7.0,53,0.00,CLR,,0.00,WeatherDisplay:10.37,2013-01-28 22:30:00,
2013-01-28 14:35:00,56.3,38.9,30.19,North,354,2.0,9.0,52,0.00,CLR,,0.00,WeatherDisplay:10.37,2013-01-28 22:35:00,
2013-01-28 14:40:00,56.5,40.0,30.20,North,357,0.0,7.0,54,0.00,CLR,,0.00,WeatherDisplay:10.37,2013-01-28 22:40:00,
2013-01-28 14:45:00,56.5,39.6,30.20,North,354,5.0,10.0,53,0.00,CLR,,0.00,WeatherDisplay:10.37,2013-01-28 22:45:00,
2013-01-28 14:50:00,56.6,39.2,30.20,North,1,2.0,5.0,52,0.00,CLR,,0.00,WeatherDisplay:10.37,2013-01-28 22:50:00,
2013-01-28 14:55:00,56.7,39.7,30.20,North,8,0.0,3.0,53,0.00,CLR,,0.00,WeatherDisplay:10.37,2013-01-28 22:55:00,
2013-01-28 15:00:00,56.7,40.2,30.20,NNW,337,3.0,7.0,54,0.00,CLR,,0.00,WeatherDisplay:10.37,2013-01-28 23:00:00,
2013-01-28 15:05:00,56.8,40.3,30.20,NNW,327,0.0,8.0,54,0.00,CLR,,0.00,WeatherDisplay:10.37,2013-01-28 23:05:00,
2013-01-28 15:10:00,56.9,39.9,30.20,NNW,334,0.0,5.0,53,0.00,CLR,,0.00,WeatherDisplay:10.37,2013-01-28 23:10:00,
2013-01-28 15:20:00,57.0,40.5,30.20,NW,325,0.0,4.0,54,0.00,CLR,,0.00,WeatherDisplay:10.37,2013-01-28 23:20:00,
2013-01-28 15:25:00,57.0,40.5,30.20,West,268,0.0,4.0,54,0.00,CLR,,0.00,WeatherDisplay:10.37,2013-01-28 23:25:00,
2013-01-28 15:30:00,57.1,41.1,30.20,South,170,1.0,6.0,55,0.00,CLR,,0.00,WeatherDisplay:10.37,2013-01-28 23:30:00,
2013-01-28 15:35:00,57.1,40.6,30.20,ENE,61,1.0,6.0,54,0.00,CLR,,0.00,WeatherDisplay:10.37,2013-01-28 23:35:00,
2013-01-28 15:40:00,57.1,39.6,30.20,NE,35,0.0,5.0,52,0.00,CLR,,0.00,WeatherDisplay:10.37,2013-01-28 23:40:00,
2013-01-28 15:45:00,57.1,40.1,30.20,NNE,14,1.0,6.0,53,0.00,CLR,,0.00,WeatherDisplay:10.37,2013-01-28 23:45:00,
2013-01-28 15:50:00,57.1,40.6,30.20,NNW,346,0.0,8.0,54,0.00,CLR,,0.00,WeatherDisplay:10.37,2013-01-28 23:50:00,
2013-01-28 15:55:00,57.1,41.1,30.20,NNW,345,1.0,4.0,55,0.00,CLR,,0.00,WeatherDisplay:10.37,2013-01-28 23:55:00,
2013-01-28 16:00:00,57.1,41.1,30.20,NNW,333,1.0,8.0,55,0.00,CLR,,0.00,WeatherDisplay:10.37,2013-01-29 00:00:00,
2013-01-28 16:05:00,57.0,41.0,30.21,NNW,329,0.0,7.0,55,0.00,CLR,,0.00,WeatherDisplay:10.37,2013-01-29 00:05:00,
2013-01-28 16:10:00,57.0,41.4,30.21,NW,311,2.0,6.0,56,0.00,CLR,,0.00,WeatherDisplay:10.37,2013-01-29 00:10:00,
2013-01-28 16:20:00,56.7,40.7,30.21,NW,315,5.0,9.0,55,0.00,CLR,,0.00,WeatherDisplay:10.37,2013-01-29 00:20:00,
2013-01-28 16:30:00,56.5,41.4,30.21,WNW,302,5.0,7.0,57,0.00,CLR,,0.00,WeatherDisplay:10.37,2013-01-29 00:30:00,
2013-01-28 16:40:00,56.2,41.6,30.21,NW,315,2.0,7.0,58,0.00,CLR,,0.00,WeatherDisplay:10.37,2013-01-29 00:40:00,
2013-01-28 16:45:00,56.0,41.9,30.21,NNW,328,0.0,6.0,59,0.00,CLR,,0.00,WeatherDisplay:10.37,2013-01-29 00:45:00,
2013-01-28 16:50:00,55.8,41.3,30.21,North,356,1.0,4.0,58,0.00,CLR,,0.00,WeatherDisplay:10.37,2013-01-29 00:50:00,
2013-01-28 17:00:00,55.5,41.4,30.22,North,349,2.0,7.0,59,0.00,CLR,,0.00,WeatherDisplay:10.37,2013-01-29 01:00:00,
2013-01-28 17:05:00,55.3,41.6,30.22,North,356,0.0,6.0,60,0.00,CLR,,0.00,WeatherDisplay:10.37,2013-01-29 01:05:00,
2013-01-28 17:10:00,55.1,41.9,30.22,North,3,0.0,4.0,61,0.00,CLR,,0.00,WeatherDisplay:10.37,2013-01-29 01:10:00,
2013-01-28 17:20:00,54.7,41.5,30.23,North,356,0.0,2.0,61,0.00,CLR,,0.00,WeatherDisplay:10.37,2013-01-29 01:20:00,
2013-01-28 17:25:00,54.5,41.7,30.22,NNW,346,0.0,6.0,62,0.00,CLR,,0.00,WeatherDisplay:10.37,2013-01-29 01:25:00,
2013-01-28 17:30:00,54.3,41.6,30.23,North,353,0.0,3.0,62,0.00,CLR,,0.00,WeatherDisplay:10.37,2013-01-29 01:30:00,
2013-01-28 17:35:00,54.1,41.8,30.23,North,6,0.0,3.0,63,0.00,CLR,,0.00,WeatherDisplay:10.37,2013-01-29 01:35:00,
2013-01-28 17:40:00,53.9,41.6,30.23,North,1,0.0,0.0,63,0.00,CLR,,0.00,WeatherDisplay:10.37,2013-01-29 01:40:00,
2013-01-28 17:45:00,53.7,41.4,30.23,North,354,0.0,4.0,63,0.00,CLR,,0.00,WeatherDisplay:10.37,2013-01-29 01:45:00,
2013-01-28 17:50:00,53.5,41.2,30.23,NNW,340,0.0,0.0,63,0.00,CLR,,0.00,WeatherDisplay:10.37,2013-01-29 01:50:00,
2013-01-28 17:55:00,53.2,41.3,30.24,NNW,344,2.0,7.0,64,0.00,CLR,,0.00,WeatherDisplay:10.37,2013-01-29 01:55:00,
2013-01-28 18:05:00,52.8,41.0,30.24,North,357,1.0,4.0,64,0.00,CLR,,0.00,WeatherDisplay:10.37,2013-01-29 02:05:00,
2013-01-28 18:10:00,52.5,40.7,30.24,NNW,342,1.0,6.0,64,0.00,CLR,,0.00,WeatherDisplay:10.37,2013-01-29 02:10:00,
2013-01-28 18:15:00,52.3,40.9,30.24,NNW,334,0.0,3.0,65,0.00,CLR,,0.00,WeatherDisplay:10.37,2013-01-29 02:15:00,
2013-01-28 18:20:00,52.1,40.7,30.24,NNW,345,2.0,5.0,65,0.00,CLR,,0.00,WeatherDisplay:10.37,2013-01-29 02:20:00,
2013-01-28 18:25:00,51.9,40.5,30.24,North,351,0.0,1.0,65,0.00,CLR,,0.00,WeatherDisplay:10.37,2013-01-29 02:25:00,
2013-01-28 18:30:00,51.8,40.8,30.25,NW,309,0.0,5.0,66,0.00,CLR,,0.00,WeatherDisplay:10.37,2013-01-29 02:30:00,
2013-01-28 18:40:00,51.4,40.8,30.25,NNW,327,0.0,0.0,67,0.00,CLR,,0.00,WeatherDisplay:10.37,2013-01-29 02:40:00,
2013-01-28 18:50:00,51.0,40.4,30.25,NNW,337,0.0,0.0,67,0.00,CLR,,0.00,WeatherDisplay:10.37,2013-01-29 02:50:00,
2013-01-28 19:00:00,50.6,40.4,30.26,NW,307,1.0,9.0,68,0.00,CLR,,0.00,WeatherDisplay:10.37,2013-01-29 03:00:00,
2013-01-28 19:05:00,50.5,40.7,30.26,NW,309,0.0,2.0,69,0.00,CLR,,0.00,WeatherDisplay:10.37,2013-01-29 03:05:00,
2013-01-28 19:10:00,50.3,40.5,30.26,NW,312,2.0,6.0,69,0.00,CLR,,0.00,WeatherDisplay:10.37,2013-01-29 03:10:00,
2013-01-28 19:20:00,50.1,40.7,30.26,NNW,337,0.0,10.0,70,0.00,CLR,,0.00,WeatherDisplay:10.37,2013-01-29 03:20:00,
2013-01-28 19:25:00,50.0,40.6,30.26,North,351,0.0,0.0,70,0.00,CLR,,0.00,WeatherDisplay:10.37,2013-01-29 03:25:00,
2013-01-28 19:30:00,49.8,40.4,30.26,North,350,0.0,0.0,70,0.00,CLR,,0.00,WeatherDisplay:10.37,2013-01-29 03:30:00,
2013-01-28 19:40:00,49.5,40.1,30.27,North,350,0.0,0.0,70,0.00,CLR,,0.00,WeatherDisplay:10.37,2013-01-29 03:40:00,
2013-01-28 19:50:00,49.3,40.3,30.27,NW,308,0.0,6.0,71,0.00,CLR,,0.00,WeatherDisplay:10.37,2013-01-29 03:50:00,
2013-01-28 20:00:00,49.0,40.0,30.27,NNW,334,0.0,4.0,71,0.00,CLR,,0.00,WeatherDisplay:10.37,2013-01-29 04:00:00,
2013-01-28 20:05:00,49.0,40.0,30.26,NNE,23,0.0,0.0,71,0.00,CLR,,0.00,WeatherDisplay:10.37,2013-01-29 04:05:00,
2013-01-28 20:10:00,48.8,40.2,30.27,NNE,19,0.0,1.0,72,0.00,CLR,,0.00,WeatherDisplay:10.37,2013-01-29 04:10:00,
2013-01-28 20:20:00,48.6,40.4,30.27,WNW,301,2.0,7.0,73,0.00,CLR,,0.00,WeatherDisplay:10.37,2013-01-29 04:20:00,
2013-01-28 20:30:00,48.5,40.2,30.27,WNW,284,0.0,6.0,73,0.00,CLR,,0.00,WeatherDisplay:10.37,2013-01-29 04:30:00,
2013-01-28 20:35:00,48.4,40.5,30.27,WNW,284,0.0,5.0,74,0.00,CLR,,0.00,WeatherDisplay:10.37,2013-01-29 04:35:00,
2013-01-28 20:40:00,48.4,40.1,30.27,NW,319,0.0,4.0,73,0.00,CLR,,0.00,WeatherDisplay:10.37,2013-01-29 04:40:00,
2013-01-28 20:45:00,48.3,40.4,30.27,NNW,333,0.0,3.0,74,0.00,CLR,,0.00,WeatherDisplay:10.37,2013-01-29 04:45:00,
2013-01-28 20:50:00,48.3,40.4,30.27,NNW,347,0.0,2.0,74,0.00,CLR,,0.00,WeatherDisplay:10.37,2013-01-29 04:50:00,
2013-01-28 20:55:00,48.3,40.4,30.27,NNW,341,0.0,9.0,74,0.00,CLR,,0.00,WeatherDisplay:10.37,2013-01-29 04:55:00,
2013-01-28 21:00:00,48.3,40.7,30.27,NNW,339,0.0,6.0,75,0.00,CLR,,0.00,WeatherDisplay:10.37,2013-01-29 05:00:00,
2013-01-28 21:10:00,48.3,40.7,30.27,North,353,1.0,6.0,75,0.00,CLR,,0.00,WeatherDisplay:10.37,2013-01-29 05:10:00,
2013-01-28 21:15:00,48.3,40.4,30.27,North,350,0.0,3.0,74,0.00,CLR,,0.00,WeatherDisplay:10.37,2013-01-29 05:15:00,
2013-01-28 21:20:00,48.3,40.4,30.27,North,352,0.0,2.0,74,0.00,CLR,,0.00,WeatherDisplay:10.37,2013-01-29 05:20:00,
2013-01-28 21:25:00,48.3,40.4,30.28,North,358,0.0,0.0,74,0.00,CLR,,0.00,WeatherDisplay:10.37,2013-01-29 05:25:00,
2013-01-28 21:30:00,48.2,40.3,30.28,North,352,0.0,6.0,74,0.00,CLR,,0.00,WeatherDisplay:10.37,2013-01-29 05:30:00,
2013-01-28 21:40:00,48.1,40.2,30.28,NNW,328,1.0,8.0,74,0.00,CLR,,0.00,WeatherDisplay:10.37,2013-01-29 05:40:00,
2013-01-28 21:50:00,47.9,40.0,30.28,NW,318,2.0,6.0,74,0.00,CLR,,0.00,WeatherDisplay:10.37,2013-01-29 05:50:00,
2013-01-28 22:00:00,47.8,40.3,30.28,NW,305,0.0,3.0,75,0.00,CLR,,0.00,WeatherDisplay:10.37,2013-01-29 06:00:00,
2013-01-28 22:05:00,47.7,39.8,30.28,NW,306,0.0,0.0,74,0.00,CLR,,0.00,WeatherDisplay:10.37,2013-01-29 06:05:00,
2013-01-28 22:10:00,47.6,39.7,30.28,NW,306,0.0,0.0,74,0.00,CLR,,0.00,WeatherDisplay:10.37,2013-01-29 06:10:00,
2013-01-28 22:20:00,47.4,39.9,30.28,WNW,303,0.0,4.0,75,0.00,CLR,,0.00,WeatherDisplay:10.37,2013-01-29 06:20:00,
2013-01-28 22:25:00,47.4,39.5,30.28,WNW,302,0.0,0.0,74,0.00,CLR,,0.00,WeatherDisplay:10.37,2013-01-29 06:25:00,
2013-01-28 22:30:00,47.3,39.4,30.28,WNW,301,0.0,0.0,74,0.00,CLR,,0.00,WeatherDisplay:10.37,2013-01-29 06:30:00,
2013-01-28 22:35:00,47.2,39.3,30.28,WNW,300,0.0,0.0,74,0.00,CLR,,0.00,WeatherDisplay:10.37,2013-01-29 06:35:00,
2013-01-28 22:40:00,47.1,39.2,30.28,WNW,300,0.0,0.0,74,0.00,CLR,,0.00,WeatherDisplay:10.37,2013-01-29 06:40:00,
2013-01-28 22:45:00,46.9,39.0,30.28,WNW,301,0.0,0.0,74,0.00,CLR,,0.00,WeatherDisplay:10.37,2013-01-29 06:45:00,
2013-01-28 22:50:00,46.8,38.9,30.28,WNW,301,0.0,0.0,74,0.00,CLR,,0.00,WeatherDisplay:10.37,2013-01-29 06:50:00,
2013-01-28 23:00:00,46.5,39.0,30.28,WNW,301,0.0,0.0,75,0.00,CLR,,0.00,WeatherDisplay:10.37,2013-01-29 07:00:00,
2013-01-28 23:05:00,46.4,38.9,30.29,WNW,301,0.0,0.0,75,0.00,CLR,,0.00,WeatherDisplay:10.37,2013-01-29 07:05:00,
2013-01-28 23:10:00,46.3,38.8,30.29,WNW,301,0.0,0.0,75,0.00,CLR,,0.00,WeatherDisplay:10.37,2013-01-29 07:10:00,
2013-01-28 23:20:00,46.0,38.5,30.28,WNW,301,0.0,0.0,75,0.00,CLR,,0.00,WeatherDisplay:10.37,2013-01-29 07:20:00,
2013-01-28 23:30:00,45.7,38.2,30.28,WNW,301,0.0,0.0,75,0.00,CLR,,0.00,WeatherDisplay:10.37,2013-01-29 07:30:00,
2013-01-28 23:35:00,45.6,38.4,30.28,WNW,301,0.0,0.0,76,0.00,CLR,,0.00,WeatherDisplay:10.37,2013-01-29 07:35:00,
2013-01-28 23:40:00,45.4,38.3,30.29,WNW,301,0.0,0.0,76,0.00,CLR,,0.00,WeatherDisplay:10.37,2013-01-29 07:40:00,
2013-01-28 23:50:00,45.2,38.1,30.29,WNW,301,0.0,0.0,76,0.00,CLR,,0.00,WeatherDisplay:10.37,2013-01-29 07:50:00,
2013-01-28 23:55:00,45.0,37.9,30.29,WNW,301,0.0,0.0,76,0.00,CLR,,0.00,WeatherDisplay:10.37,2013-01-29 07:55:00,